TimeCDT,TemperatureF,Dew PointF,Humidity,Sea Level PressureIn,VisibilityMPH,Wind Direction,Wind SpeedMPH,Gust SpeedMPH,PrecipitationIn,Events,Conditions,WindDirDegrees,DateUTC
12:53 AM,30.0,28.9,96,30.42,10.0,West,5.8,-,N/A,,Clear,260,2012-10-07 05:53:00
2:53 AM,28.0,27.0,96,30.41,10.0,West,3.5,-,N/A,,Clear,280,2012-10-07 07:53:00
3:53 AM,27.0,26.1,96,30.39,10.0,WSW,4.6,-,N/A,,Clear,240,2012-10-07 08:53:00
4:53 AM,27.0,26.1,96,30.38,10.0,West,3.5,-,N/A,,Clear,260,2012-10-07 09:53:00
5:53 AM,25.0,23.0,92,30.38,10.0,West,3.5,-,N/A,,Clear,260,2012-10-07 10:53:00
6:53 AM,26.1,24.1,92,30.36,10.0,West,3.5,-,N/A,,Clear,270,2012-10-07 11:53:00
7:53 AM,25.0,24.1,96,30.37,10.0,West,4.6,-,N/A,,Clear,280,2012-10-07 12:53:00
8:53 AM,28.9,27.0,92,30.38,10.0,West,3.5,-,N/A,,Clear,270,2012-10-07 13:53:00
9:53 AM,33.1,30.9,92,30.37,10.0,Calm,Calm,-,N/A,,Scattered Clouds,0,2012-10-07 14:53:00
10:53 AM,37.0,35.1,93,30.35,10.0,Calm,Calm,-,N/A,,Overcast,0,2012-10-07 15:53:00
11:43 AM,42.8,39.2,87,30.28,10.0,SW,10.4,-,N/A,,Overcast,220,2012-10-07 16:43:00
11:53 AM,43.0,37.9,82,30.32,10.0,SSW,9.2,-,N/A,,Overcast,210,2012-10-07 16:53:00
12:09 PM,42.8,37.4,81,30.27,10.0,SW,9.2,-,N/A,,Overcast,220,2012-10-07 17:09:00
12:42 PM,44.6,37.4,76,30.25,10.0,SW,8.1,-,N/A,,Overcast,230,2012-10-07 17:42:00
12:53 PM,44.1,37.0,76,30.30,10.0,WSW,9.2,-,N/A,,Overcast,240,2012-10-07 17:53:00
1:35 PM,46.4,37.4,71,30.23,10.0,SW,11.5,19.6,N/A,,Overcast,230,2012-10-07 18:35:00
1:53 PM,46.9,37.9,71,30.26,10.0,WSW,10.4,-,N/A,,Overcast,250,2012-10-07 18:53:00
2:53 PM,48.9,37.9,66,30.21,10.0,SW,5.8,-,N/A,,Mostly Cloudy,230,2012-10-07 19:53:00
3:53 PM,48.9,39.0,69,30.19,10.0,WSW,4.6,-,0.00,,Mostly Cloudy,240,2012-10-07 20:53:00
4:53 PM,53.1,37.0,55,30.15,10.0,SW,12.7,-,0.00,,Partly Cloudy,230,2012-10-07 21:53:00
5:53 PM,52.0,36.0,54,30.14,10.0,SW,12.7,-,N/A,,Partly Cloudy,220,2012-10-07 22:53:00
6:53 PM,50.0,37.0,61,30.13,10.0,SSW,9.2,-,N/A,,Clear,210,2012-10-07 23:53:00
7:53 PM,45.0,37.0,74,30.14,10.0,SSW,6.9,-,N/A,,Clear,200,2012-10-08 00:53:00
8:53 PM,43.0,36.0,76,30.13,10.0,SSW,8.1,-,N/A,,Clear,210,2012-10-08 01:53:00
9:53 PM,39.9,35.1,83,30.14,10.0,SW,5.8,-,N/A,,Clear,230,2012-10-08 02:53:00
10:53 PM,42.1,35.1,76,30.13,10.0,SW,9.2,-,N/A,,Clear,230,2012-10-08 03:53:00
11:53 PM,41.0,34.0,76,30.11,10.0,SW,8.1,-,N/A,,Clear,230,2012-10-08 04:53:00